Location: Asheville, NC
(35.6000°N, 82.5500°W)
Time: 02:27:06
(UTC-04:00)

ITAMSAT 1 - Pass Details

Date: 14 March 2018
Orbit: 784 x 796 km, 98.9° (Epoch: 20 June)

Event Time Altitude Azimuth Distance (km) Brightness Sun altitude
Rises 05:43:19 0° 10° (N) 3,301 11.2 -24.8°
Reaches altitude 10° 05:45:39 10° 8° (N) 2,367 10.4 -24.3°
Maximum altitude 05:50:51 70° 286° (WNW) 841 7.5 -23.3°
Enters shadow 05:52:00 52° 225° (SW) 972 7.7 -23.1°
